Starlink 35677

operational
NORAD ID: 66220 Int'l Des: 2025-244 Owner: SPXS Country: US Constellation: starlink
NOTLE

Über Starlink 35677

Beschreibung wird geladen...

Live-Position

3D-Globus wird geladen...

Nächste Überflüge

Höhenverlauf

Altitude vs Time

uPlot chart will show altitude changes over time

Zweizeiliger Elementsatz

1 66220U 25244Q 25348.98547639 -.00569265 00000-0 -18939-1 0 9992
2 66220 53.1605 265.2891 0035880 70.3908 290.0961 15.32248630 8663
Epoch: 14. Dez. 2025 • Age: 27 hours

Aktueller Status

Höhe 453.2 km
Geschwindigkeit 7.66 km/s
Subsatellitenpunkt 44.03°N, 176.88°W
Startdatum 28. Okt. 2025
Alter 0.1 years
Typ internet

Technische Details

Klassifizierung Payload
Masse 575.00 kg
Trockenmasse 530.00 kg
Gesamtmasse 575.00 kg
Länge 0.30 m
Durchmesser 4.10 m
Spannweite 29.00 m
Form Box + pan
Hersteller SPXS
Bus-Typ Starlink V2MO
Phasenstatus In Orbit
Besitzer/Staat SPXS/US

Große Konstellationen

Loading constellations...